| time (UTC) | temp F | wind direction | speed knots | gust knots | rain 1hr in | rain 24hr in | rain mn in | humidity % | barometer mb |
| 20260506061538 | 45 | 0 | 0.0 | 2.6 | 0.05 | 0.89 | 0.12 | 95 | 1008.5 |
| 20260506044545 | 46 | 307 | 2.6 | 7.0 | 0.05 | 0.81 | 0.04 | 95 | 1009.5 |
| 20260506043037 | 47 | 300 | 1.7 | 7.8 | 0.07 | 0.80 | 0.03 | 95 | 1009.7 |
| 20260506041536 | 47 | 299 | 2.6 | 6.1 | 0.07 | 0.78 | 0.01 | 95 | 1009.9 |
| 20260506040054 | 48 | 299 | 2.6 | 7.0 | 0.09 | 0.77 | 0.00 | 95 | 1009.9 |
| 20260506034543 | 48 | 299 | 1.7 | 3.5 | 0.11 | 0.76 | 0.76 | 95 | 1010.1 |
| 20260506033039 | 48 | 299 | 0.9 | 4.3 | 0.12 | 0.73 | 0.73 | 95 | 1010.2 |
| 20260506031553 | 48 | 0 | 0.0 | 2.6 | 0.13 | 0.71 | 0.71 | 95 | 1009.6 |
| 20260506030038 | 48 | 299 | 0.0 | 1.7 | 0.13 | 0.68 | 0.68 | 95 | 1009.6 |
| 20260506024537 | 48 | 299 | 0.0 | 2.6 | 0.13 | 0.65 | 0.65 | 95 | 1009.4 |
| 20260506023037 | 48 | 299 | 1.7 | 3.5 | 0.12 | 0.61 | 0.61 | 95 | 1009.9 |
| 20260506021541 | 48 | 0 | 0.0 | 0.0 | 0.10 | 0.58 | 0.58 | 95 | 1009.9 |
| 20260506020039 | 48 | 0 | 0.0 | 1.7 | 0.07 | 0.55 | 0.55 | 95 | 1009.6 |
| 20260506014539 | 48 | 299 | 0.9 | 2.6 | 0.04 | 0.52 | 0.52 | 94 | 1009.5 |
| 20260506013037 | 48 | 299 | 0.0 | 2.6 | 0.01 | 0.49 | 0.49 | 94 | 1009.5 |
| 20260506011538 | 48 | 0 | 0.0 | 0.0 | 0.04 | 0.48 | 0.48 | 94 | 1009.3 |
| 20260506010042 | 48 | 0 | 0.0 | 0.9 | 0.08 | 0.48 | 0.48 | 94 | 1009.3 |
| 20260506004541 | 48 | 0 | 0.0 | 3.5 | 0.12 | 0.48 | 0.48 | 94 | 1009.1 |
| 20260506003038 | 48 | 299 | 1.7 | 4.3 | 0.17 | 0.48 | 0.48 | 94 | 1009.2 |
| 20260506001537 | 48 | 0 | 0.0 | 3.5 | 0.14 | 0.44 | 0.44 | 94 | 1009.2 |
| 20260506000037 | 48 | 298 | 1.7 | 4.3 | 0.11 | 0.40 | 0.40 | 94 | 1009.6 |
| 20260505234542 | 48 | 298 | 0.0 | 9.6 | 0.07 | 0.35 | 0.35 | 94 | 1009.7 |
| 20260505233041 | 48 | 305 | 0.9 | 4.3 | 0.06 | 0.31 | 0.31 | 94 | 1009.4 |
| 20260505231548 | 48 | 304 | 3.5 | 7.8 | 0.06 | 0.30 | 0.30 | 94 | 1009.4 |
| 20260505230037 | 48 | 302 | 3.5 | 7.0 | 0.09 | 0.29 | 0.29 | 94 | 1009.6 |
| 20260505224537 | 49 | 302 | 1.7 | 6.1 | 0.13 | 0.28 | 0.28 | 94 | 1009.5 |
| 20260505223044 | 49 | 302 | 5.2 | 8.7 | 0.13 | 0.24 | 0.24 | 93 | 1009.4 |
| 20260505221537 | 50 | 309 | 1.7 | 6.1 | 0.15 | 0.24 | 0.24 | 93 | 1009.5 |
| 20260505220041 | 50 | 310 | 4.3 | 9.6 | 0.15 | 0.20 | 0.20 | 93 | 1009.4 |
| 20260505214549 | 52 | 295 | 6.1 | 13.0 | 0.13 | 0.15 | 0.15 | 93 | 1009.8 |
| 20260505213038 | 54 | 317 | 5.2 | 9.6 | 0.09 | 0.11 | 0.11 | 93 | 1009.1 |
| 20260505211538 | 55 | 302 | 4.3 | 8.7 | 0.08 | 0.09 | 0.09 | 93 | 1008.8 |
| 20260505210037 | 55 | 299 | 4.3 | 8.7 | 0.05 | 0.05 | 0.05 | 92 | 1009.1 |
| 20260505204537 | 55 | 298 | 2.6 | 7.0 | 0.02 | 0.02 | 0.02 | 92 | 1009.0 |
| 20260505203036 | 56 | 311 | 5.2 | 9.6 | 0.02 | 0.02 | 0.02 | 91 | 1008.9 |
| 20260505201536 | 56 | 297 | 6.1 | 10.4 | 0.01 | 0.01 | 0.01 | 90 | 1008.9 |
| 20260505200043 | 57 | 309 | 5.2 | 7.8 | 0.00 | 0.00 | 0.00 | 88 | 1008.9 |
| 20260505194539 | 58 | 242 | 6.1 | 10.4 | 0.00 | 0.00 | 0.00 | 87 | 1009.1 |
| 20260505193037 | 59 | 298 | 3.5 | 7.8 | 0.00 | 0.00 | 0.00 | 86 | 1009.1 |
| 20260505191540 | 59 | 292 | 6.1 | 13.9 | 0.00 | 0.00 | 0.00 | 83 | 1009.1 |
| 20260505190039 | 60 | 294 | 6.1 | 11.3 | 0.00 | 0.00 | 0.00 | 79 | 1009.2 |
| 20260505184541 | 61 | 297 | 5.2 | 12.2 | 0.00 | 0.00 | 0.00 | 78 | 1009.2 |
| 20260505183040 | 62 | 296 | 7.0 | 14.8 | 0.00 | 0.00 | 0.00 | 76 | 1009.1 |
| 20260505181540 | 62 | 313 | 7.8 | 13.9 | 0.00 | 0.00 | 0.00 | 77 | 1009.1 |
| 20260505180040 | 61 | 281 | 7.8 | 18.2 | 0.00 | 0.00 | 0.00 | 77 | 1008.9 |
| 20260505174552 | 61 | 299 | 8.7 | 16.5 | 0.00 | 0.00 | 0.00 | 76 | 1008.9 |
| 20260505173038 | 61 | 287 | 7.8 | 13.9 | 0.00 | 0.00 | 0.00 | 75 | 1008.7 |
| 20260505171539 | 61 | 293 | 7.0 | 15.6 | 0.00 | 0.00 | 0.00 | 74 | 1008.7 |
| 20260505170037 | 63 | 286 | 7.8 | 16.5 | 0.00 | 0.00 | 0.00 | 70 | 1008.6 |
| 20260505164537 | 66 | 313 | 11.3 | 20.0 | 0.00 | 0.00 | 0.00 | 64 | 1008.3 |
| 20260505163051 | 68 | 243 | 8.7 | 19.1 | 0.00 | 0.00 | 0.00 | 61 | 1008.0 |
| 20260505161538 | 68 | 281 | 10.4 | 19.1 | 0.00 | 0.00 | 0.00 | 63 | 1008.0 |
| 20260505153037 | 66 | 219 | 6.1 | 16.5 | 0.00 | 0.00 | 0.00 | 67 | 1007.6 |
| 20260505151537 | 65 | 220 | 7.8 | 23.5 | 0.00 | 0.00 | 0.00 | 68 | 1008.1 |
| 20260505124540 | 61 | 196 | 7.0 | 14.8 | 0.00 | 0.00 | 0.00 | 75 | 1006.9 |
| 20260505123043 | 61 | 194 | 4.3 | 13.0 | 0.00 | 0.00 | 0.00 | 75 | 1006.7 |
| 20260505121536 | 62 | 235 | 7.0 | 17.4 | 0.00 | 0.00 | 0.00 | 73 | 1006.6 |
| 20260505120040 | 63 | 258 | 12.2 | 21.7 | 0.00 | 0.00 | 0.00 | 69 | 1006.7 |
| 20260505114537 | 63 | 210 | 8.7 | 16.5 | 0.00 | 0.00 | 0.00 | 68 | 1006.6 |
| 20260505113041 | 63 | 217 | 6.1 | 15.6 | 0.00 | 0.00 | 0.00 | 69 | 1006.5 |
| 20260505111540 | 63 | 246 | 5.2 | 13.9 | 0.00 | 0.00 | 0.00 | 69 | 1006.2 |
| 20260505101538 | 63 | 217 | 7.0 | 13.0 | 0.00 | 0.00 | 0.00 | 69 | 1005.4 |
| 20260505100037 | 63 | 240 | 7.0 | 14.8 | 0.00 | 0.00 | 0.00 | 69 | 1005.0 |
| 20260505094540 | 63 | 236 | 4.3 | 10.4 | 0.00 | 0.00 | 0.00 | 69 | 1004.8 |
| 20260505093037 | 63 | 229 | 4.3 | 12.2 | 0.00 | 0.00 | 0.00 | 69 | 1004.6 |
| 20260505091535 | 64 | 225 | 4.3 | 13.0 | 0.00 | 0.00 | 0.00 | 68 | 1004.5 |
| 20260505090041 | 64 | 206 | 4.3 | 13.9 | 0.00 | 0.00 | 0.00 | 67 | 1004.6 |
| 20260505084538 | 64 | 192 | 6.1 | 13.9 | 0.00 | 0.00 | 0.00 | 66 | 1004.7 |
| 20260505083037 | 65 | 245 | 9.6 | 29.5 | 0.00 | 0.00 | 0.00 | 65 | 1004.6 |
| 20260505081544 | 65 | 182 | 7.8 | 16.5 | 0.00 | 0.00 | 0.00 | 65 | 1004.4 |
| 20260505080038 | 65 | 221 | 7.8 | 15.6 | 0.00 | 0.00 | 0.00 | 65 | 1004.3 |
| 20260505074535 | 66 | 229 | 8.7 | 15.6 | 0.00 | 0.00 | 0.00 | 64 | 1004.3 |
| 20260505073045 | 66 | 240 | 7.0 | 21.7 | 0.00 | 0.00 | 0.00 | 64 | 1004.2 |
| 20260505071549 | 66 | 244 | 7.8 | 17.4 | 0.00 | 0.00 | 0.00 | 63 | 1004.2 |